Weather History for Grand Marais Airport, MN

Change the Weather History Date:

Sunday, April 29, 2012

  Actual Average Record
Temperature  
Mean Temperature 36 °F -  
Max Temperature 53 °F 50 °F 105 °F (1997)
Min Temperature 19 °F 31 °F 19 °F (2012)
Degree Days  
Heating Degree Days 29    
Moisture  
Dew Point 15 °F    
Average Humidity 39    
Maximum Humidity 86    
Minimum Humidity 20    
Precipitation  
Precipitation 0.00 in - - ()
Sea Level Pressure  
Sea Level Pressure 30.22 in    
Wind  
Wind Speed 4 mph (ESE)    
Max Wind Speed 9 mph    
Max Gust Speed -    
Visibility 10 miles    
Events      
Averages and records for this station are not official NWS values.
T = Trace of Precipitation, MM = Missing Value Source: NWS Daily Summary

Daily Weather History Graph

Daily Weather History Graph

Search for Another Location

Airport:

Trip Planner

Search our weather history database for the weather conditions in past years. The results will help you decide how hot, cold, wet, or windy it might be!

Date:

Astronomy

Apr. 29, 2012 Rise Set
Actual Time 5:46 AM CDT 8:12 PM CDT
Civil Twilight 5:11 AM CDT 8:46 PM CDT
Nautical Twilight 4:28 AM CDT 9:30 PM CDT
Astronomical Twilight 3:39 AM CDT 10:20 PM CDT
Moon 12:33 PM CDT (4/29) 2:09 AM CDT (4/29)
Length of Visible Light 15h 34m
Length of Day
14h 25m
First Quarter, 53% of the Moon is Illuminated
Apr 29
First Quarter
May 5
Full
May 12
Last Quarter
May 20
New
May 28
First Quarter

Hourly Weather History & Observations

Time (CDT) Temp. Windchill Dew Point Humidity Pressure Visibility Wind Dir Wind Speed Gust Speed Precip Events Conditions
12:14 AM 23.0 °F 18.4 °F 17.6 °F 80% 30.27 in 10.0 mi NNE 3.5 mph - N/A   Clear
12:33 AM 24.8 °F - 15.8 °F 69% 30.28 in 10.0 mi Calm Calm - N/A   Clear
1:14 AM 21.2 °F 16.4 °F 17.6 °F 86% 30.27 in 10.0 mi NNE 3.5 mph - N/A   Clear
1:33 AM 21.2 °F 14.9 °F 15.8 °F 80% 30.27 in 10.0 mi North 4.6 mph - N/A   Clear
1:54 AM 24.8 °F 19.1 °F 12.2 °F 59% 30.26 in 10.0 mi NNE 4.6 mph - N/A   Clear
2:14 AM 24.8 °F - 8.6 °F 50% 30.27 in 10.0 mi Calm Calm - N/A   Clear
2:33 AM 24.8 °F - 6.8 °F 46% 30.28 in 10.0 mi Calm Calm - N/A   Clear
2:53 AM 24.8 °F - 8.6 °F 50% 30.28 in 10.0 mi Calm Calm - N/A   Clear
3:14 AM 21.2 °F - 14.0 °F 74% 30.28 in 10.0 mi Calm Calm - N/A   Clear
3:33 AM 21.2 °F - 12.2 °F 68% 30.28 in 10.0 mi Calm Calm - N/A   Clear
3:53 AM 19.4 °F 12.8 °F 15.8 °F 86% 30.28 in 10.0 mi North 4.6 mph - N/A   Clear
4:14 AM 21.2 °F - 10.4 °F 63% 30.28 in 10.0 mi Calm Calm - N/A   Clear
4:33 AM 21.2 °F 16.4 °F 10.4 °F 63% 30.27 in 10.0 mi NNE 3.5 mph - N/A   Clear
4:53 AM 21.2 °F 13.6 °F 12.2 °F 68% 30.27 in 10.0 mi North 5.8 mph - N/A   Clear
5:13 AM 21.2 °F 14.9 °F 12.2 °F 68% 30.27 in 10.0 mi North 4.6 mph - N/A   Clear
5:33 AM 21.2 °F 14.9 °F 12.2 °F 68% 30.26 in 10.0 mi NNE 4.6 mph - N/A   Clear
5:54 AM 28.4 °F - 8.6 °F 43% 30.26 in 10.0 mi Calm Calm - N/A   Clear
6:13 AM 23.0 °F - 12.2 °F 63% 30.26 in 10.0 mi Calm Calm - N/A   Clear
6:33 AM 24.8 °F - 12.2 °F 59% 30.26 in 10.0 mi Calm Calm - N/A   Clear
6:54 AM 30.2 °F - 19.4 °F 64% 30.27 in 10.0 mi Calm Calm - N/A   Clear
7:13 AM 30.2 °F - 19.4 °F 64% 30.27 in 10.0 mi Calm Calm - N/A   Clear
7:34 AM 35.6 °F - 17.6 °F 48% 30.27 in 10.0 mi Calm Calm - N/A   Clear
7:53 AM 39.2 °F - 10.4 °F 31% 30.28 in 10.0 mi Calm Calm - N/A   Clear
8:13 AM 41.0 °F 38.0 °F 10.4 °F 29% 30.28 in 10.0 mi ESE 4.6 mph - N/A   Clear
8:33 AM 42.8 °F 41.1 °F 12.2 °F 29% 30.28 in 10.0 mi SSE 3.5 mph - N/A   Clear
8:54 AM 44.6 °F 42.2 °F 15.8 °F 31% 30.27 in 10.0 mi ESE 4.6 mph - N/A   Clear
9:14 AM 44.6 °F 42.2 °F 15.8 °F 31% 30.27 in 10.0 mi ESE 4.6 mph - N/A   Clear
9:33 AM 46.4 °F 45.2 °F 17.6 °F 32% 30.27 in 10.0 mi ESE 3.5 mph - N/A   Clear
9:53 AM 48.2 °F - 17.6 °F 30% 30.28 in 10.0 mi SE 4.6 mph - N/A   Clear
10:14 AM 50.0 °F - 19.4 °F 30% 30.29 in 10.0 mi South 6.9 mph - N/A   Clear
10:33 AM 48.2 °F - 17.6 °F 30% 30.29 in 10.0 mi SE 6.9 mph - N/A   Clear
10:54 AM 48.2 °F - 17.6 °F 30% 30.29 in 10.0 mi South 6.9 mph - N/A   Clear
11:13 AM 48.2 °F - 17.6 °F 30% 30.28 in 10.0 mi SSE 4.6 mph - N/A   Clear
11:33 AM 48.2 °F - 17.6 °F 30% 30.26 in 10.0 mi SE 6.9 mph - N/A   Clear
11:54 AM 51.8 °F - 19.4 °F 28% 30.26 in 10.0 mi SSE 5.8 mph - N/A   Clear
12:13 PM 51.8 °F - 19.4 °F 28% 30.26 in 10.0 mi SSE 6.9 mph - N/A   Clear
12:33 PM 51.8 °F - 19.4 °F 28% 30.26 in 10.0 mi SE 6.9 mph - N/A   Clear
12:54 PM 53.6 °F - 19.4 °F 26% 30.25 in 10.0 mi SE 6.9 mph - N/A   Clear
1:13 PM 51.8 °F - 19.4 °F 28% 30.24 in 10.0 mi South 8.1 mph - N/A   Clear
1:33 PM 51.8 °F - 19.4 °F 28% 30.24 in 10.0 mi South 6.9 mph - N/A   Clear
1:54 PM 51.8 °F - 17.6 °F 26% 30.23 in 10.0 mi SSE 6.9 mph - N/A   Clear
2:13 PM 53.6 °F - 19.4 °F 26% 30.23 in 10.0 mi SE 6.9 mph - N/A   Clear
2:33 PM 53.6 °F - 17.6 °F 24% 30.23 in 10.0 mi South 9.2 mph - N/A   Clear
2:53 PM 53.6 °F - 17.6 °F 24% 30.22 in 10.0 mi SSE 4.6 mph - N/A   Clear
3:14 PM 53.6 °F - 17.6 °F 24% 30.21 in 10.0 mi SSE 4.6 mph - N/A   Clear
3:33 PM 51.8 °F - 15.8 °F 24% 30.20 in 10.0 mi ESE 6.9 mph - N/A   Clear
3:53 PM 53.6 °F - 15.8 °F 22% 30.19 in 10.0 mi ESE 6.9 mph - N/A   Clear
4:13 PM 53.6 °F - 15.8 °F 22% 30.19 in 10.0 mi SSE 5.8 mph - N/A   Clear
4:34 PM 53.6 °F - 15.8 °F 22% 30.18 in 10.0 mi SE 4.6 mph - N/A   Clear
4:53 PM 53.6 °F - 15.8 °F 22% 30.17 in 10.0 mi SE 5.8 mph - N/A   Clear
5:13 PM 53.6 °F - 15.8 °F 22% 30.17 in 10.0 mi East 8.1 mph - N/A   Clear
5:34 PM 51.8 °F - 17.6 °F 26% 30.16 in 10.0 mi East 5.8 mph - N/A   Clear
5:53 PM 50.0 °F - 15.8 °F 26% 30.16 in 10.0 mi ESE 8.1 mph - N/A   Clear
6:13 PM 50.0 °F - 17.6 °F 28% 30.15 in 10.0 mi East 6.9 mph - N/A   Clear
6:34 PM 48.2 °F - 15.8 °F 27% 30.15 in 10.0 mi ESE 5.8 mph - N/A   Clear
6:53 PM 46.4 °F 44.3 °F 15.8 °F 29% 30.14 in 10.0 mi East 4.6 mph - N/A   Clear
7:13 PM 46.4 °F 43.5 °F 17.6 °F 32% 30.13 in 10.0 mi East 5.8 mph - N/A   Clear
7:34 PM 46.4 °F 42.4 °F 17.6 °F 32% 30.13 in 10.0 mi East 8.1 mph - N/A   Clear
7:53 PM 46.4 °F 43.5 °F 17.6 °F 32% 30.12 in 10.0 mi East 5.8 mph - N/A   Clear
8:13 PM 44.6 °F 40.2 °F 17.6 °F 34% 30.12 in 10.0 mi East 8.1 mph - N/A   Clear
8:34 PM 44.6 °F 40.2 °F 19.4 °F 37% 30.12 in 10.0 mi East 8.1 mph - N/A   Clear
9:13 PM 44.6 °F 39.7 °F 15.8 °F 31% 30.11 in 10.0 mi East 9.2 mph - N/A   Clear
9:34 PM 44.6 °F 40.7 °F 10.4 °F 25% 30.11 in 10.0 mi East 6.9 mph - N/A   Clear
9:53 PM 44.6 °F 39.7 °F 8.6 °F 23% 30.10 in 10.0 mi East 9.2 mph - N/A   Clear
10:14 PM 44.6 °F 39.7 °F 5.0 °F 20% 30.09 in 10.0 mi ENE 9.2 mph - N/A   Clear
10:34 PM 42.8 °F 38.0 °F 5.0 °F 21% 30.09 in 10.0 mi East 8.1 mph - N/A   Clear
10:53 PM 42.8 °F 39.3 °F 6.8 °F 23% 30.08 in 10.0 mi East 5.8 mph - N/A   Clear
11:14 PM 42.8 °F 40.1 °F 8.6 °F 25% 30.07 in 10.0 mi East 4.6 mph - N/A   Scattered Clouds
11:34 PM 42.8 °F 40.1 °F 8.6 °F 25% 30.07 in 10.0 mi East 4.6 mph - N/A   Mostly Cloudy
11:54 PM 42.8 °F 41.1 °F 10.4 °F 27% 30.06 in 10.0 mi East 3.5 mph - N/A   Scattered Clouds